DECAYED

STARLINK-1657, 46354 (Decayed)

Orbit data source: Space-Track

STARLINK-1657, 46354 was a payload satellite owned by SpaceX/Seattle (US) in LEO that was launched on Thu, 03 Sep 2020 UTC via an FALCON 9 launch vehicle from the Air Force Eastern Test Range (AFETR). Payload-class satellites include a variety of spacecraft equipped with specific instruments for various scientific and technological missions. These include communications satellites like Starlink; space stations such as the ISS; scientific satellites like the Hubble; Earth observation satellites from companies like Planet Labs, Umbra, and HawkEye 360; GPS; miniature CubeSats for education and research; and military/defense satellites.

Not visible in the next 10 days
Identifier
46354, 2020-062AF
Orbit
Decayed
Country
Flag of USUS
Related business
Manufacturer
SpaceX/Seattle
Mission
Decayed Commercial Communications
Bus & Motor
STARLINK, Unknown motor
Mass
260 kg wet, ~248 kg dry
Launch date (UTC)
2020-09-03 (6 years ago)
Launch vehicle
FALCON 9
Launch site
Air Force Eastern Test Range (AFETR)
Object type
Payload
Rocket body
Debris
Shape & HBR
Box + 1 Pan, 10.1 m
Radar Cross Section
13.562 m², Large (>1 m²)

Expand to show TLE details & history
Last TLE update: 5 months ago

TLE from 5 months ago
0 STARLINK-1657
1 46354U 20062AF  26100.02922900  .11548918  12481-4  60082-3 0  9991
2 46354  53.0229 167.8301 0004988 303.6689  56.3882 16.42597143309988
Epoch: 2026-04-10T00:42Z
TLE epoch observation values (Epoch: 2026-04-10T00:42:05.385Z)
Latitude
-0.00005°
Longitude
-40.96113°
Altitude
158.027 km
Speed
7.814 km/s
True Right ascension
11h 11m 19s
True Declination
0° 00' 00"
Sunlit
Object was in full shadow at epoch
Visualization orbit readout
Latitude
Unknown
Longitude
Unknown
Altitude
Unknown
Speed
Unknown
Apparent Right ascension
Unknown
Apparent Declination
Unknown
Sunlit
N/A
Visualization observer readout
Local Sidereal Time
15:54:10
Azimuth
Unknown
Elevation
Unknown
Doppler factor
Unknown
Orbital elements
Apogee altitude
162.455 km
Perigee altitude
155.934 km
Semi-major axis
6,537.332 km
Eccentricity
0.0005
Inclination
53.0229°
RAAN
167.8301°
Arg. of periapsis
303.6689°
True anomaly
56.43582°
Mean anomaly
56.3882°
Eccentric anomaly
56.41201°
Mean motion
4.10622 °/min
Orbital period
87.67 mins
BSTAR
0.00060082
Loading maneuver chart data...
Computing Atmospheric mass density...

Documentation

Showing up to 5 results
|